Location: Bas-Clignon
(44.2000°N, 6.6333°E)
Time: 11:44:13
(UTC+00:00)

Atlas Centaur 2 - Pass Details

Date: 03 February 2023
Orbit: 458 x 1296 km, 30.4° (Epoch: 19 March)

Event Time Altitude Azimuth Distance (km) Brightness Sun altitude
Rises 18:08:45 0° 226° (SW) 4,058 6.7 -15.2°
Reaches altitude 10° 18:12:06 10° 213° (SSW) 3,186 5.8 -15.8°
Maximum altitude 18:18:20 24° 164° (SSE) 2,366 4.4 -16.9°
Enters shadow 18:23:05 15° 123° (ESE) 2,921 4.5 -17.7°
